GEO-KOMPSAT-2A (43823 NORAD) Tracking and Keplerian Element Data

This shows tracking and keplerian element data for the satellite.

Feedback or suggestion? Click here.




ElementValue
Catalog43823
NameGEO-KOMPSAT-2A
Epoch Orbit141
Epoch Day111.90777972
Epoch Year2019
RAAN32.7157
Inclination0.0012
Eccentricity0.0002505
Argument of Perigee36.3493
Mean Anonmoly235.6811
Mean Motion1.00271023
Decay Rate-3.61E-06
L11 43823U 18100A 19111.90777972 -.00000361 00000-0 00000-0 0 9992
L22 43823 0.0012 32.7157 0002505 36.3493 235.6811 1.00271023 1418

Live tracking and technical data element details for GEO-KOMPSAT-2A (NORAD 43823). GEO-KOMPSAT-2A can be tracked NOW for your location showing map with azimuth and elevation plus other details from your city location.

Track the satellite on the map from your city or location and see movement details for azimuth, elevation, latitude, longitude, range, height, and movement on the map or in text.







IsCatalogInMostPopularTable: catalog: 43823, numindb: 39
Update: records affected: 1



GetName: 43823 GEO-KOMPSAT-2A

Hit Count: updated at: Tue, 23 Apr 2019 19:52:06 GMT